Regional Weather Roundup
Issued by NWS

Home | Current Version | Previous Version | Text Only | Print | Product List | Glossary Off
Versions: 1 2 3 4 5 6 7 8 9 10 11 12 13 14 15 16 17 18 19 20 21 22 23 24 25 26 27 28 29 30 31 32 33 34 35 36 37 38 39 40 41 42 43 44 45 46 47 48 49 50

000
ASUS45 KABQ 230510
RWRNM
WEATHER ROUNDUP FOR NEW MEXICO
NATIONAL WEATHER SERVICE ALBUQUERQUE NM
1100 PM MDT TUE APR 22 2014

NOTE: "FAIR" MEANS FEW OR NO CLOUDS BELOW 12,000 FEET AGL WITH NO
       SIGNIFICANT WEATHER OR OBSTRUCTIONS TO VISION.

      THIS PRODUCT IS RELEASED AS TWO VERSIONS.  ONE VERSION NEAR
      THE TOP OF THE HOUR CONTAINING PRELIMINARY DATA FROM ALBUQUERQUE
      AND OTHER STATIONS.  A FINAL VERSION WITH ADDITIONAL DATA IS
      ISSUED ABOUT 10 MINUTES AFTER THE HOUR.

NMZ501-503-504-510>518-230600-
NORTHWEST PLATEAU/NORTHCENTRAL MOUNTAINS

CITY           SKY/WX    TMP DP  RH WIND       PRES   REMARKS
FARMINGTON     MOCLDY    64  21  19 W8        29.82R
LOS ALAMOS     CLOUDY    62  29  28 S17G26    29.98F
SANTA FE       CLOUDY    64  28  25 S8        29.92S
TAOS           CLOUDY    59  30  33 SW13G20   30.00R
ANGEL FIRE     LGT RAIN  53  33  45 SW15G22   30.05F

$$
NMZ402-403-502-505>509-230600-
WESTCENTRAL MOUNTAINS/SOUTHWEST MOUNTAINS

CITY           SKY/WX    TMP DP  RH WIND       PRES   REMARKS
GALLUP         CLOUDY    60  25  26 SW15      29.92S
GRANTS         CLOUDY    60  25  25 W6        29.96S
SILVER CITY    MOCLDY    68  23  18 W17       29.95S

$$
NMZ407-409-411-412-230600-
SOUTHERN DESERTS

CITY           SKY/WX    TMP DP  RH WIND       PRES   REMARKS
LORDSBURG      FAIR      72  27  18 W9        29.89R
DEMING         MOCLDY    71  25  17 W12       29.87R
LAS CRUCES     MOCLDY    74  20  13 W9        29.88F
HOLLOMAN AFB   MOCLDY    76  39  26 SE14G31   29.85R
ALAMOGORDO     MOCLDY    75  37  25 S21G29    29.86S
T OR C         PTCLDY    67  23  19 S6        29.86S

$$
NMZ519>523-230600-
CENTRAL VALLEYS/CENTRAL HIGHLANDS

CITY           SKY/WX    TMP DP  RH WIND       PRES   REMARKS
ALBUQUERQUE    MOCLDY    70  29  21 S13       29.87F
DOUBLE EAGLE   CLOUDY    65  29  25 S12       29.90S
MORIARTY ARPT  FAIR      51  32  49 S9        29.96S
CLINES CORNERS PTCLDY    52  34  50 S9        29.98F
BELEN          FAIR      67  30  25 S13       29.87S
SOCORRO        FAIR      67  27  22 SW8       29.85F

$$
NMZ524>526-539-540-230600-
SOUTHCENTRAL MOUNTAINS

CITY           SKY/WX    TMP DP  RH WIND       PRES   REMARKS
RUIDOSO        MOCLDY    61  34  36 S12       30.08R

$$
NMZ527>531-230600-
NORTHEAST HIGHLANDS/NORTHEAST PLAINS

CITY           SKY/WX    TMP DP  RH WIND       PRES   REMARKS
LAS VEGAS      MOCLDY    53  41  63 S15       29.97F
RATON          PTCLDY    53  41  63 SW13      29.91F
CLAYTON        NOT AVBL

$$
NMZ532>537-230600-
EASTCENTRAL PLAINS

CITY           SKY/WX    TMP DP  RH WIND       PRES   REMARKS
TUCUMCARI      MOCLDY    67  46  47 S13       29.85R
CANNON AFB     PTCLDY    64  40  40 S10       29.93F
CLOVIS AIRPORT PTCLDY    64  39  39 S15       29.95F

$$
NMZ028-029-538-230600-
SOUTHEAST PLAINS

CITY           SKY/WX    TMP DP  RH WIND       PRES   REMARKS
ROSWELL        CLEAR     70  44  39 S14       29.87S
ARTESIA        CLEAR     66  45  45 S12       29.88S
CARLSBAD       CLEAR     70  43  37 S12       29.87S
HOBBS          CLEAR     64  45  48 SE9       29.93F


$$



USA.gov is the U.S. government's official web portal to all federal, state and local government web resources and services.